Weather Service Report


496 
ASUS42 KTBW 260817
RWRFL 
FLORIDA REGIONAL WEATHER ROUNDUP
NATIONAL WEATHER SERVICE TAMPA BAY RUSKIN FL
400 AM EDT MON JUN 26 2017

NOTE: "FAIR" INDICATES FEW OR NO CLOUDS BELOW 12,000 FEET WITH NO
SIGNIFICANT WEATHER AND/OR OBSTRUCTIONS TO VISIBILITY.

FLZ001>010-012>015-112-114-115-260900-
PANHANDLE FLORIDA
  
CITY           SKY/WX    TMP DP  RH WIND       PRES   REMARKS
PENSACOLA      CLEAR     74  60  61 N8        30.09F                  
PENSACOLA NAS  CLEAR     72  61  68 N7        30.08F                  
MILTON NAS     CLEAR     68  60  75 NE3       30.09                   
CRESTVIEW      CLEAR     67  62  84 N3        30.11F                  
DUKE FIELD     FAIR      68  64  86 N3        30.09F                  
VALPARAISO     PTCLDY    71  65  82 N6        30.08F                  
MARY ESTHER    PTCLDY    71  62  71 N5        30.07                   
PANAMA CITY    FAIR      73  70  90 NW5       30.08R                  
TYNDALL AFB    CLOUDY    76  72  89 N6        30.07F                  
APALACHICOLA   PTCLDY    75  75 100 CALM      30.06F                  

STATION/POSITION SKY/WX   TEMP    WIND        PRES    WAVE   SWELL
                          AIR SEA DIR/SP/G            HT/PER HT/PER
                          (F)     (DEG/KT/KT) (MB)    (FT/S) (FT/S)
30.1N   87.6W              79 82   50/ 14/ 16 1018.2F   2/ 4
29.2N   88.2W              80 84  110/ 16/ 21 1018.4
28.8N   86.0W              80 83   30/  2/  4 1017.7F   2/ 7   2/ 7
PANAMA CITY BEAC           74 83   20/  4/  8 1018.9F
TOWER C                    78     360/  5/  6 1018.4F
28.5N   84.5W              82 83  280/  2/  4 1017.8F   1/ 6   2/ 6

$$
FLZ011-016>038-118-127-128-134-139-239-260900-
NORTH FLORIDA
  
CITY           SKY/WX    TMP DP  RH WIND       PRES   REMARKS
MARIANNA       CLOUDY    71  68  90 CALM      30.08F                  
TALLAHASSEE    CLOUDY    75  74  96 N5        30.07S                  
PERRY          CLOUDY    76  74  95 CALM      30.07S                  
CROSS CITY     MOCLDY    73  72  94 CALM      30.06S                  
LAKE CITY      FAIR      72  72 100 CALM      30.06F                  
GAINESVILLE    PTCLDY    74  72  93 CALM      30.06F                  
WILLISTON      CLEAR     77  75  94 CALM      30.06F                  
PALATKA        FAIR      73  73 100 CALM      30.06S                  
MAYPORT NAS    PTCLDY    75  74  96 W5        30.05S                  
JACKSONVILLE   MOCLDY    75  75 100 SW3       30.05S                  
JAX NAS        PTCLDY    76  74  93 SW7       30.06S                  
FERNANDINA BEA FAIR      79  75  89 CALM      30.04F                  
ST AUGUSTINE   PTCLDY    73  72  96 CALM      30.06F                  
PALM COAST     CLOUDY    74  74 100 CALM      30.05F                  

STATION/POSITION SKY/WX   TEMP    WIND        PRES    WAVE   SWELL
                          AIR SEA DIR/SP/G            HT/PER HT/PER
                          (F)     (DEG/KT/KT) (MB)    (FT/S) (FT/S)
SHELL POINT      NOT AVBL
KEATON BEACH               76      70/  4/  5 1017.5R
CEDAR KEY                  80      30/  3/  4 1018.0F
FERNANDINA                 78 84  230/  2/  4 1018.5F
30.7N   81.3W                 80                N/A     2/ 9
MAYPORT                    75 81  270/  4/  5 1018.2R
31.4N   80.9W              80 82  240/  6/  8 1017.4S   2/ 8   2/ 8
ST AUGUSTINE               74 77  250/  5/  5 1017.6F

$$
FLZ040-043>046-052-053-057-058-063-144-260900-
INTERIOR CENTRAL FLORIDA
  
CITY           SKY/WX    TMP DP  RH WIND       PRES   REMARKS
OCALA          CLEAR     76  74  93 CALM      30.06F                  
THE VILLAGES     N/A     77  75  94 CALM      29.96F                  
LEESBURG       CLOUDY    80  75  84 CALM      30.07F                  
SANFORD        MOCLDY    77  75  93 CALM      30.05F                  
ORLANDO EXEC   CLOUDY    78  76  93 E3        30.06F                  
ORLANDO INTL   CLOUDY    76  76 100 SE5       30.06F                  
KISSIMMEE      CLOUDY    79  76  90 S3        30.07F                  
WINTER HAVEN   CLOUDY    77  74  90 SW5       30.07F                  
LAKELAND       CLOUDY    77  77 100 CALM      30.07F                  
BARTOW         CLOUDY    75 N/A N/A CALM      30.07F                  
SEBRING        FAIR      79  73  84 CALM      30.07F                  

$$
FLZ041-047-054-059-064-141-147-260900-
EAST CENTRAL FLORIDA
  
CITY           SKY/WX    TMP DP  RH WIND       PRES   REMARKS
DAYTONA BEACH  MOCLDY    76  75  97 CALM      30.05S                  
DELAND         CLOUDY    77  73  88 S6        30.05S                  
JFK SPACE CTR  CLOUDY    79  76  93 S6        30.05F                  
CAPE CANAVERAL PTCLDY    78  74  89 S6        30.05F                  
PATRICK AFB    CLEAR     78  76  92 S7        30.06F                  
MELBOURNE      CLEAR     79  75  87 S7        30.06F                  
VERO BEACH     MOCLDY    76  74  93 CALM      30.08F                  
FT PIERCE      CLEAR     76  74  93 W5        30.07F                  
STUART         PTCLDY    79  75  89 CALM      30.08F                  

STATION/POSITION SKY/WX   TEMP    WIND        PRES    WAVE   SWELL
                          AIR SEA DIR/SP/G            HT/PER HT/PER
                          (F)     (DEG/KT/KT) (MB)    (FT/S) (FT/S)
28.5N   80.2W              80 80  190/  6/  8 1018.9
28.9N   78.5W              82 83  160/ 14/ 16 1017.8F   3/ 8   2/ 8
TRIDENT PIER               77 81  180/  7/  9 1019.4F
28.4N   80.5W                 76                N/A     1/ 8
27.5N   80.2W                 80                N/A     1/ 8

$$
FLZ050-056-061-142-242-148-248-149-249-151-251-155-255-
160-260-260900-
WEST CENTRAL FLORIDA
  
CITY           SKY/WX    TMP DP  RH WIND       PRES   REMARKS
CRYSTAL RIVER  FAIR      73  73 100 CALM      30.06S                  
INVERNESS      FAIR      73  73 100 CALM      30.06F                  
BROOKSVILLE    PTCLDY    77  74  90 CALM      30.07F                  
CLEARWATER AIR FAIR      79  75  89 S3        30.06S                  
ST PETE CLEARW PTCLDY    80  75  84 S7        30.06F                  
TAMPA INTL     CLOUDY    80  74  81 S3        30.06F                  
TAMPA EXEC     CLOUDY    79  73  83 CALM      30.07F                  
PLANT CITY     CLOUDY    79  77  94 MISG      30.08F                  
MACDILL AFB    DRIZZLE   79  79 100 CALM      30.06F                  
PETER O KNIGHT CLOUDY    81  77  89 CALM      30.06S                  
ST PETERSBURG  PTCLDY    80  76  87 S6        30.04F                  
SARASOTA       CLOUDY    79  72  79 S6        30.05F                  
VENICE         CLOUDY    79  75  89 NE6       30.06F                  

STATION/POSITION SKY/WX   TEMP    WIND        PRES    WAVE   SWELL
                          AIR SEA DIR/SP/G            HT/PER HT/PER
                          (F)     (DEG/KT/KT) (MB)    (FT/S) (FT/S)
27.3N   84.2W                 83                N/A     2/ 7
CLEARWATER BEACH                  160/  4/  7   N/A
MIDDLE TAMPA BAY           79     140/  8/  9 1017.9F
VENICE                     78 88   80/  5/  7 1018.0F

$$
FLZ066-069-070-075>078-162-262-165-265-260900-
SOUTHWEST FLORIDA AND KEYS
  
CITY           SKY/WX    TMP DP  RH WIND       PRES   REMARKS
PUNTA GORDA    MOCLDY    77  75  93 CALM      30.08F                  
FT MYERS       PTCLDY    77  77 100 E3        30.06F                  
SOUTHWEST INTL PTCLDY    78  74  87 CALM      30.06F                  
NAPLES         CLOUDY    79  75  87 E3        30.06F                  
MARCO ISLAND   CLEAR     79  73  83 CALM      30.06F                  
IMMOKALEE      FAIR      75  75 100 CALM      30.08F                  
MARATHON       PTCLDY    83  77  82 E7        30.05F                  
KEY WEST NAS   PTCLDY    81  77  88 E12       30.05S                  
KEY WEST INTL  PTCLDY    83  75  77 E14       30.05F                  

STATION/POSITION SKY/WX   TEMP    WIND        PRES    WAVE   SWELL
                          AIR SEA DIR/SP/G            HT/PER HT/PER
                          (F)     (DEG/KT/KT) (MB)    (FT/S) (FT/S)
NAPLES                        88   80/  4/  6 1017.8F
DRY TORTUGAS               83     120/ 12/ 12 1017.3F
SAND KEY                   82     120/ 15/ 17 1018.0F
LONG KEY                   83 85  130/  9/ 10 1017.5
MOLASSES REEF              83 84  110/  9/ 10 1017.9F

$$
FLZ067-068-071>074-168-172>174-260900-
SOUTHEAST FLORIDA 
  
CITY           SKY/WX    TMP DP  RH WIND       PRES   REMARKS
W PALM BEACH   PTCLDY    81  73  76 SE5       30.08S                  
FT LAUDER-EXEC CLEAR     73  73 100 SE7       30.06F                  
FT LAUDERDALE  PTCLDY    82  75  79 SE10      30.05F                  
POMPANO BEACH  CLEAR     83  75  77 SE12      30.06F                  
PEMBROKE PINES CLEAR     81  74  79 E6        30.07F                  
OPA LOCKA      PTCLDY    82  77  84 E6        30.06F                  
MIAMI          PTCLDY    82  72  71 SE6       30.06F                  
WEST KENDALL   CLEAR     81  75  82 E7        30.06F                  
HOMESTEAD      CLEAR     82  77  84 E7        30.05F                  

STATION/POSITION SKY/WX   TEMP    WIND        PRES    WAVE   SWELL
                          AIR SEA DIR/SP/G            HT/PER HT/PER
                          (F)     (DEG/KT/KT) (MB)    (FT/S) (FT/S)
PORT EVERGLADES            83     120/  5/ 10 1018.0F
VIRGINIA KEY                       90/  7/  9   N/A
LAKE WORTH                 82 83  140/ 10/ 11 1019.1F
FOWEY ROCKS                83 83  100/ 12/ 13 1018.4F
SETTLEMENT POINT           80     140/  7/  8 1018.4F

$$

  

Return to Home page


Western Regional Climate Center, wrcc@dri.edu